Year,Month,Day,Hour,Minute,Value (Times are PST for barometer in hPa)
2021,10,24,00,00,996.28
2021,10,24,00,01,996.28
2021,10,24,00,02,996.24
2021,10,24,00,03,996.24
2021,10,24,00,04,996.24
2021,10,24,00,05,996.28
2021,10,24,00,06,996.28
2021,10,24,00,07,996.24
2021,10,24,00,08,996.21
2021,10,24,00,09,996.14
2021,10,24,00,10,996.14
2021,10,24,00,11,996.07
2021,10,24,00,12,996.01
2021,10,24,00,13,995.94
2021,10,24,00,14,995.90
2021,10,24,00,15,995.84
2021,10,24,00,16,995.80
2021,10,24,00,17,995.77
2021,10,24,00,18,995.77
2021,10,24,00,19,995.80
2021,10,24,00,20,995.84
2021,10,24,00,21,995.87
2021,10,24,00,22,995.84
2021,10,24,00,23,995.84
2021,10,24,00,24,995.80
2021,10,24,00,25,995.77
2021,10,24,00,26,995.73
2021,10,24,00,27,995.77
2021,10,24,00,28,995.77
2021,10,24,00,29,995.73
2021,10,24,00,30,995.70
2021,10,24,00,31,995.67
2021,10,24,00,32,995.60
2021,10,24,00,33,995.63
2021,10,24,00,34,995.56
2021,10,24,00,35,995.53
2021,10,24,00,36,995.49
2021,10,24,00,37,995.40
2021,10,24,00,38,995.36
2021,10,24,00,39,995.33
2021,10,24,00,40,995.29
2021,10,24,00,41,995.29
2021,10,24,00,42,995.23
2021,10,24,00,43,995.18
2021,10,24,00,44,995.09
2021,10,24,00,45,995.12
2021,10,24,00,46,995.09
2021,10,24,00,47,995.09
2021,10,24,00,48,995.06
2021,10,24,00,49,995.06
2021,10,24,00,50,995.09
2021,10,24,00,51,995.09
2021,10,24,00,52,995.06
2021,10,24,00,53,994.99
2021,10,24,00,54,995.02
2021,10,24,00,55,995.06
2021,10,24,00,56,995.06
2021,10,24,00,57,995.02
2021,10,24,00,58,995.06
2021,10,24,00,59,995.09
2021,10,24,01,00,994.99
2021,10,24,01,01,994.96
2021,10,24,01,02,994.99
2021,10,24,01,03,994.99
2021,10,24,01,04,994.96
2021,10,24,01,05,994.99
2021,10,24,01,06,994.99
2021,10,24,01,07,995.06
2021,10,24,01,08,994.99
2021,10,24,01,09,995.02
2021,10,24,01,10,994.99
2021,10,24,01,11,994.96
2021,10,24,01,12,994.89
2021,10,24,01,13,994.92
2021,10,24,01,14,994.96
2021,10,24,01,15,994.92
2021,10,24,01,16,994.92
2021,10,24,01,17,994.85
2021,10,24,01,18,994.82
2021,10,24,01,19,994.89
2021,10,24,01,20,994.85
2021,10,24,01,21,994.85
2021,10,24,01,22,994.82
2021,10,24,01,23,994.85
2021,10,24,01,24,994.85
2021,10,24,01,25,994.82
2021,10,24,01,26,994.82
2021,10,24,01,27,994.79
2021,10,24,01,28,994.72
2021,10,24,01,29,994.79
2021,10,24,01,30,994.75
2021,10,24,01,31,994.82
2021,10,24,01,32,994.74
2021,10,24,01,33,994.62
2021,10,24,01,34,994.58
2021,10,24,01,35,994.58
2021,10,24,01,36,994.58
2021,10,24,01,37,994.65
2021,10,24,01,38,994.56
2021,10,24,01,39,994.65
2021,10,24,01,40,994.62
2021,10,24,01,41,994.55
2021,10,24,01,42,994.45
2021,10,24,01,43,994.41
2021,10,24,01,44,994.35
2021,10,24,01,45,994.38
2021,10,24,01,46,994.38
2021,10,24,01,47,994.38
2021,10,24,01,48,994.31
2021,10,24,01,49,994.31
2021,10,24,01,50,994.31
2021,10,24,01,51,994.28
2021,10,24,01,52,994.24
2021,10,24,01,53,994.21
2021,10,24,01,54,994.14
2021,10,24,01,55,994.11
2021,10,24,01,56,994.14
2021,10,24,01,57,994.11
2021,10,24,01,58,994.13
2021,10,24,01,59,993.97
2021,10,24,02,00,994.07
2021,10,24,02,01,994.04
2021,10,24,02,02,994.11
2021,10,24,02,03,994.11
2021,10,24,02,04,994.01
2021,10,24,02,05,994.01
2021,10,24,02,06,993.97
2021,10,24,02,07,994.01
2021,10,24,02,08,993.97
2021,10,24,02,09,994.01
2021,10,24,02,10,993.97
2021,10,24,02,11,993.87
2021,10,24,02,12,993.94
2021,10,24,02,13,993.91
2021,10,24,02,14,993.87
2021,10,24,02,15,993.91
2021,10,24,02,16,993.91
2021,10,24,02,17,993.87
2021,10,24,02,18,993.84
2021,10,24,02,19,993.84
2021,10,24,02,20,993.77
2021,10,24,02,21,993.84
2021,10,24,02,22,993.77
2021,10,24,02,23,993.84
2021,10,24,02,24,993.67
2021,10,24,02,25,993.63
2021,10,24,02,26,993.63
2021,10,24,02,27,993.57
2021,10,24,02,28,993.57
2021,10,24,02,29,993.57
2021,10,24,02,30,993.60
2021,10,24,02,31,993.57
2021,10,24,02,32,993.57
2021,10,24,02,33,993.47
2021,10,24,02,34,993.50
2021,10,24,02,35,993.47
2021,10,24,02,36,993.33
2021,10,24,02,37,993.33
2021,10,24,02,38,993.30
2021,10,24,02,39,993.33
2021,10,24,02,40,993.30
2021,10,24,02,41,993.26
2021,10,24,02,42,993.23
2021,10,24,02,43,993.19
2021,10,24,02,44,993.19
2021,10,24,02,45,993.26
2021,10,24,02,46,993.23
2021,10,24,02,47,993.16
2021,10,24,02,48,993.18
2021,10,24,02,49,993.09
2021,10,24,02,50,993.15
2021,10,24,02,51,993.07
2021,10,24,02,52,993.16
2021,10,24,02,53,993.12
2021,10,24,02,54,992.99
2021,10,24,02,55,992.96
2021,10,24,02,56,992.92
2021,10,24,02,57,992.91
2021,10,24,02,58,992.82
2021,10,24,02,59,992.81
2021,10,24,03,00,992.69
2021,10,24,03,01,992.65
2021,10,24,03,02,992.69
2021,10,24,03,03,992.65
2021,10,24,03,04,992.65
2021,10,24,03,05,992.65
2021,10,24,03,06,992.62
2021,10,24,03,07,992.58
2021,10,24,03,08,992.62
2021,10,24,03,09,992.52
2021,10,24,03,10,992.48
2021,10,24,03,11,992.42
2021,10,24,03,12,992.35
2021,10,24,03,13,992.31
2021,10,24,03,14,992.25
2021,10,24,03,15,992.25
2021,10,24,03,16,992.18
2021,10,24,03,17,992.28
2021,10,24,03,18,992.28
2021,10,24,03,19,992.28
2021,10,24,03,20,992.28
2021,10,24,03,21,992.28
2021,10,24,03,22,992.28
2021,10,24,03,23,992.27
2021,10,24,03,24,992.14
2021,10,24,03,25,992.11
2021,10,24,03,26,992.08
2021,10,24,03,27,992.13
2021,10,24,03,28,991.91
2021,10,24,03,29,991.81
2021,10,24,03,30,991.70
2021,10,24,03,31,991.70
2021,10,24,03,32,991.67
2021,10,24,03,33,991.60
2021,10,24,03,34,991.57
2021,10,24,03,35,991.47
2021,10,24,03,36,991.53
2021,10,24,03,37,991.40
2021,10,24,03,38,991.43
2021,10,24,03,39,991.43
2021,10,24,03,40,991.47
2021,10,24,03,41,991.47
2021,10,24,03,42,991.43
2021,10,24,03,43,991.42
2021,10,24,03,44,991.33
2021,10,24,03,45,991.30
2021,10,24,03,46,991.30
2021,10,24,03,47,991.20
2021,10,24,03,48,991.16
2021,10,24,03,49,991.16
2021,10,24,03,50,991.15
2021,10,24,03,51,991.03
2021,10,24,03,52,991.13
2021,10,24,03,53,991.06
2021,10,24,03,54,991.03
2021,10,24,03,55,990.96
2021,10,24,03,56,990.89
2021,10,24,03,57,990.82
2021,10,24,03,58,990.79
2021,10,24,03,59,990.62
2021,10,24,04,00,990.55
2021,10,24,04,01,990.60
2021,10,24,04,02,990.76
2021,10,24,04,03,990.82
2021,10,24,04,04,990.82
2021,10,24,04,05,990.82
2021,10,24,04,06,990.82
2021,10,24,04,07,990.82
2021,10,24,04,08,990.82
2021,10,24,04,09,990.78
2021,10,24,04,10,990.69
2021,10,24,04,11,990.55
2021,10,24,04,12,990.55
2021,10,24,04,13,990.38
2021,10,24,04,14,990.35
2021,10,24,04,15,990.35
2021,10,24,04,16,990.32
2021,10,24,04,17,990.28
2021,10,24,04,18,990.18
2021,10,24,04,19,990.11
2021,10,24,04,20,990.01
2021,10,24,04,21,989.91
2021,10,24,04,22,989.91
2021,10,24,04,23,989.98
2021,10,24,04,24,989.94
2021,10,24,04,25,989.84
2021,10,24,04,26,989.81
2021,10,24,04,27,989.77
2021,10,24,04,28,989.71
2021,10,24,04,29,989.71
2021,10,24,04,30,989.71
2021,10,24,04,31,989.67
2021,10,24,04,32,989.64
2021,10,24,04,33,989.54
2021,10,24,04,34,989.50
2021,10,24,04,35,989.44
2021,10,24,04,36,989.44
2021,10,24,04,37,989.33
2021,10,24,04,38,989.23
2021,10,24,04,39,989.16
2021,10,24,04,40,989.16
2021,10,24,04,41,989.23
2021,10,24,04,42,989.16
2021,10,24,04,43,989.16
2021,10,24,04,44,989.10
2021,10,24,04,45,989.13
2021,10,24,04,46,989.16
2021,10,24,04,47,989.16
2021,10,24,04,48,989.20
2021,10,24,04,49,989.16
2021,10,24,04,50,989.27
2021,10,24,04,51,989.27
2021,10,24,04,52,989.30
2021,10,24,04,53,989.33
2021,10,24,04,54,989.37
2021,10,24,04,55,989.44
2021,10,24,04,56,989.44
2021,10,24,04,57,989.47
2021,10,24,04,58,989.43
2021,10,24,04,59,989.33
2021,10,24,05,00,989.40
2021,10,24,05,01,989.40
2021,10,24,05,02,989.36
2021,10,24,05,03,989.27
2021,10,24,05,04,989.23
2021,10,24,05,05,989.20
2021,10,24,05,06,989.30
2021,10,24,05,07,989.23
2021,10,24,05,08,989.23
2021,10,24,05,09,989.16
2021,10,24,05,10,989.20
2021,10,24,05,11,989.10
2021,10,24,05,12,989.05
2021,10,24,05,13,988.96
2021,10,24,05,14,988.85
2021,10,24,05,15,988.76
2021,10,24,05,16,988.72
2021,10,24,05,17,988.66
2021,10,24,05,18,988.66
2021,10,24,05,19,988.66
2021,10,24,05,20,988.49
2021,10,24,05,21,988.55
2021,10,24,05,22,988.45
2021,10,24,05,23,988.39
2021,10,24,05,24,988.35
2021,10,24,05,25,988.28
2021,10,24,05,26,988.35
2021,10,24,05,27,988.35
2021,10,24,05,28,988.32
2021,10,24,05,29,988.21
2021,10,24,05,30,988.05
2021,10,24,05,31,987.95
2021,10,24,05,32,987.95
2021,10,24,05,33,987.90
2021,10,24,05,34,987.78
2021,10,24,05,35,987.74
2021,10,24,05,36,987.74
2021,10,24,05,37,987.80
2021,10,24,05,38,987.67
2021,10,24,05,39,987.71
2021,10,24,05,40,987.64
2021,10,24,05,41,987.64
2021,10,24,05,42,987.58
2021,10,24,05,43,987.67
2021,10,24,05,44,987.74
2021,10,24,05,45,987.74
2021,10,24,05,46,987.84
2021,10,24,05,47,987.78
2021,10,24,05,48,987.67
2021,10,24,05,49,987.61
2021,10,24,05,50,987.56
2021,10,24,05,51,987.34
2021,10,24,05,52,987.29
2021,10,24,05,53,987.20
2021,10,24,05,54,987.27
2021,10,24,05,55,987.17
2021,10,24,05,56,987.00
2021,10,24,05,57,986.96
2021,10,24,05,58,986.86
2021,10,24,05,59,986.93
2021,10,24,06,00,986.56
2021,10,24,06,01,986.73
2021,10,24,06,02,986.59
2021,10,24,06,03,986.49
2021,10,24,06,04,986.42
2021,10,24,06,05,986.51
2021,10,24,06,06,986.39
2021,10,24,06,07,986.32
2021,10,24,06,08,986.31
2021,10,24,06,09,986.19
2021,10,24,06,10,986.29
2021,10,24,06,11,986.28
2021,10,24,06,12,986.18
2021,10,24,06,13,986.15
2021,10,24,06,14,986.18
2021,10,24,06,15,986.02
2021,10,24,06,16,985.98
2021,10,24,06,17,985.95
2021,10,24,06,18,985.88
2021,10,24,06,19,985.91
2021,10,24,06,20,985.88
2021,10,24,06,21,985.81
2021,10,24,06,22,985.78
2021,10,24,06,23,985.71
2021,10,24,06,24,985.64
2021,10,24,06,25,985.64
2021,10,24,06,26,985.64
2021,10,24,06,27,985.54
2021,10,24,06,28,985.51
2021,10,24,06,29,985.47
2021,10,24,06,30,985.37
2021,10,24,06,31,985.37
2021,10,24,06,32,985.37
2021,10,24,06,33,985.37
2021,10,24,06,34,985.41
2021,10,24,06,35,985.30
2021,10,24,06,36,985.34
2021,10,24,06,37,985.27
2021,10,24,06,38,985.27
2021,10,24,06,39,985.24
2021,10,24,06,40,985.24
2021,10,24,06,41,985.24
2021,10,24,06,42,985.20
2021,10,24,06,43,985.17
2021,10,24,06,44,985.17
2021,10,24,06,45,985.13
2021,10,24,06,46,985.17
2021,10,24,06,47,985.17
2021,10,24,06,48,985.20
2021,10,24,06,49,985.17
2021,10,24,06,50,985.13
2021,10,24,06,51,985.13
2021,10,24,06,52,985.03
2021,10,24,06,53,985.00
2021,10,24,06,54,984.93
2021,10,24,06,55,985.00
2021,10,24,06,56,985.03
2021,10,24,06,57,985.00
2021,10,24,06,58,984.92
2021,10,24,06,59,984.79
2021,10,24,07,00,984.69
2021,10,24,07,01,984.59
2021,10,24,07,02,984.56
2021,10,24,07,03,984.56
2021,10,24,07,04,984.56
2021,10,24,07,05,984.66
2021,10,24,07,06,984.70
2021,10,24,07,07,984.80
2021,10,24,07,08,984.76
2021,10,24,07,09,984.80
2021,10,24,07,10,984.73
2021,10,24,07,11,984.66
2021,10,24,07,12,984.59
2021,10,24,07,13,984.53
2021,10,24,07,14,984.53
2021,10,24,07,15,984.52
2021,10,24,07,16,984.42
2021,10,24,07,17,984.39
2021,10,24,07,18,984.39
2021,10,24,07,19,984.35
2021,10,24,07,20,984.22
2021,10,24,07,21,984.04
2021,10,24,07,22,983.95
2021,10,24,07,23,983.95
2021,10,24,07,24,983.92
2021,10,24,07,25,983.95
2021,10,24,07,26,983.95
2021,10,24,07,27,983.95
2021,10,24,07,28,983.81
2021,10,24,07,29,983.71
2021,10,24,07,30,983.68
2021,10,24,07,31,983.61
2021,10,24,07,32,983.64
2021,10,24,07,33,983.68
2021,10,24,07,34,983.67
2021,10,24,07,35,983.54
2021,10,24,07,36,983.51
2021,10,24,07,37,983.44
2021,10,24,07,38,983.41
2021,10,24,07,39,983.41
2021,10,24,07,40,983.37
2021,10,24,07,41,983.37
2021,10,24,07,42,983.34
2021,10,24,07,43,983.34
2021,10,24,07,44,983.44
2021,10,24,07,45,983.44
2021,10,24,07,46,983.44
2021,10,24,07,47,983.41
2021,10,24,07,48,983.34
2021,10,24,07,49,983.34
2021,10,24,07,50,983.31
2021,10,24,07,51,983.31
2021,10,24,07,52,983.31
2021,10,24,07,53,983.31
2021,10,24,07,54,983.27
2021,10,24,07,55,983.20
2021,10,24,07,56,983.17
2021,10,24,07,57,983.10
2021,10,24,07,58,983.10
2021,10,24,07,59,983.07
2021,10,24,08,00,983.00
2021,10,24,08,01,982.97
2021,10,24,08,02,982.93
2021,10,24,08,03,982.80
2021,10,24,08,04,982.87
2021,10,24,08,05,982.80
2021,10,24,08,06,982.76
2021,10,24,08,07,982.83
2021,10,24,08,08,982.87
2021,10,24,08,09,982.80
2021,10,24,08,10,982.80
2021,10,24,08,11,982.73
2021,10,24,08,12,982.66
2021,10,24,08,13,982.59
2021,10,24,08,14,982.63
2021,10,24,08,15,982.66
2021,10,24,08,16,982.66
2021,10,24,08,17,982.73
2021,10,24,08,18,982.76
2021,10,24,08,19,982.76
2021,10,24,08,20,982.76
2021,10,24,08,21,982.70
2021,10,24,08,22,982.70
2021,10,24,08,23,982.69
2021,10,24,08,24,982.59
2021,10,24,08,25,982.56
2021,10,24,08,26,982.59
2021,10,24,08,27,982.56
2021,10,24,08,28,982.49
2021,10,24,08,29,982.55
2021,10,24,08,30,982.46
2021,10,24,08,31,982.46
2021,10,24,08,32,982.46
2021,10,24,08,33,982.53
2021,10,24,08,34,982.49
2021,10,24,08,35,982.53
2021,10,24,08,36,982.53
2021,10,24,08,37,982.56
2021,10,24,08,38,982.56
2021,10,24,08,39,982.56
2021,10,24,08,40,982.59
2021,10,24,08,41,982.53
2021,10,24,08,42,982.46
2021,10,24,08,43,982.42
2021,10,24,08,44,982.32
2021,10,24,08,45,982.26
2021,10,24,08,46,982.19
2021,10,24,08,47,982.05
2021,10,24,08,48,982.05
2021,10,24,08,49,982.12
2021,10,24,08,50,982.12
2021,10,24,08,51,982.22
2021,10,24,08,52,982.22
2021,10,24,08,53,982.26
2021,10,24,08,54,982.29
2021,10,24,08,55,982.29
2021,10,24,08,56,982.32
2021,10,24,08,57,982.32
2021,10,24,08,58,982.29
2021,10,24,08,59,982.36
2021,10,24,09,00,982.32
2021,10,24,09,01,982.32
2021,10,24,09,02,982.29
2021,10,24,09,03,982.29
2021,10,24,09,04,982.32
2021,10,24,09,05,982.26
2021,10,24,09,06,982.29
2021,10,24,09,07,982.26
2021,10,24,09,08,982.29
2021,10,24,09,09,982.26
2021,10,24,09,10,982.26
2021,10,24,09,11,982.26
2021,10,24,09,12,982.22
2021,10,24,09,13,982.22
2021,10,24,09,14,982.19
2021,10,24,09,15,982.19
2021,10,24,09,16,982.22
2021,10,24,09,17,982.19
2021,10,24,09,18,982.12
2021,10,24,09,19,982.09
2021,10,24,09,20,982.05
2021,10,24,09,21,981.99
2021,10,24,09,22,982.09
2021,10,24,09,23,982.12
2021,10,24,09,24,982.09
2021,10,24,09,25,982.22
2021,10,24,09,26,982.22
2021,10,24,09,27,982.19
2021,10,24,09,28,982.12
2021,10,24,09,29,982.15
2021,10,24,09,30,982.09
2021,10,24,09,31,982.01
2021,10,24,09,32,981.88
2021,10,24,09,33,981.88
2021,10,24,09,34,981.82
2021,10,24,09,35,981.82
2021,10,24,09,36,981.78
2021,10,24,09,37,981.75
2021,10,24,09,38,981.68
2021,10,24,09,39,981.68
2021,10,24,09,40,981.51
2021,10,24,09,41,981.31
2021,10,24,09,42,981.14
2021,10,24,09,43,981.04
2021,10,24,09,44,980.87
2021,10,24,09,45,980.80
2021,10,24,09,46,980.63
2021,10,24,09,47,980.56
2021,10,24,09,48,980.33
2021,10,24,09,49,980.19
2021,10,24,09,50,980.22
2021,10,24,09,51,980.33
2021,10,24,09,52,980.46
2021,10,24,09,53,980.39
2021,10,24,09,54,980.46
2021,10,24,09,55,980.50
2021,10,24,09,56,980.36
2021,10,24,09,57,980.39
2021,10,24,09,58,980.29
2021,10,24,09,59,980.26
2021,10,24,10,00,980.26
2021,10,24,10,01,980.22
2021,10,24,10,02,980.26
2021,10,24,10,03,980.26
2021,10,24,10,04,980.16
2021,10,24,10,05,980.09
2021,10,24,10,06,980.29
2021,10,24,10,07,980.26
2021,10,24,10,08,980.26
2021,10,24,10,09,980.33
2021,10,24,10,10,980.36
2021,10,24,10,11,980.43
2021,10,24,10,12,980.39
2021,10,24,10,13,980.33
2021,10,24,10,14,980.36
2021,10,24,10,15,980.46
2021,10,24,10,16,980.53
2021,10,24,10,17,980.63
2021,10,24,10,18,980.70
2021,10,24,10,19,980.66
2021,10,24,10,20,980.66
2021,10,24,10,21,980.60
2021,10,24,10,22,980.56
2021,10,24,10,23,980.50
2021,10,24,10,24,980.53
2021,10,24,10,25,980.50
2021,10,24,10,26,980.39
2021,10,24,10,27,980.50
2021,10,24,10,28,980.46
2021,10,24,10,29,980.39
2021,10,24,10,30,980.39
2021,10,24,10,31,980.36
2021,10,24,10,32,980.33
2021,10,24,10,33,980.22
2021,10,24,10,34,980.29
2021,10,24,10,35,980.29
2021,10,24,10,36,980.19
2021,10,24,10,37,980.16
2021,10,24,10,38,980.09
2021,10,24,10,39,979.99
2021,10,24,10,40,979.99
2021,10,24,10,41,980.06
2021,10,24,10,42,979.95
2021,10,24,10,43,980.06
2021,10,24,10,44,980.16
2021,10,24,10,45,980.16
2021,10,24,10,46,980.12
2021,10,24,10,47,980.09
2021,10,24,10,48,980.02
2021,10,24,10,49,980.09
2021,10,24,10,50,980.06
2021,10,24,10,51,980.06
2021,10,24,10,52,980.09
2021,10,24,10,53,980.12
2021,10,24,10,54,980.02
2021,10,24,10,55,980.02
2021,10,24,10,56,980.02
2021,10,24,10,57,979.99
2021,10,24,10,58,980.06
2021,10,24,10,59,979.99
2021,10,24,11,00,979.99
2021,10,24,11,01,979.95
2021,10,24,11,02,979.98
2021,10,24,11,03,979.85
2021,10,24,11,04,979.78
2021,10,24,11,05,979.78
2021,10,24,11,06,979.82
2021,10,24,11,07,979.78
2021,10,24,11,08,979.78
2021,10,24,11,09,979.75
2021,10,24,11,10,979.85
2021,10,24,11,11,979.89
2021,10,24,11,12,979.95
2021,10,24,11,13,979.99
2021,10,24,11,14,979.95
2021,10,24,11,15,980.12
2021,10,24,11,16,980.09
2021,10,24,11,17,980.09
2021,10,24,11,18,980.12
2021,10,24,11,19,979.89
2021,10,24,11,20,979.86
2021,10,24,11,21,979.99
2021,10,24,11,22,979.85
2021,10,24,11,23,979.75
2021,10,24,11,24,979.55
2021,10,24,11,25,979.41
2021,10,24,11,26,979.41
2021,10,24,11,27,979.31
2021,10,24,11,28,979.41
2021,10,24,11,29,979.34
2021,10,24,11,30,979.31
2021,10,24,11,31,979.21
2021,10,24,11,32,979.24
2021,10,24,11,33,979.38
2021,10,24,11,34,979.31
2021,10,24,11,35,979.21
2021,10,24,11,36,979.24
2021,10,24,11,37,979.28
2021,10,24,11,38,979.31
2021,10,24,11,39,979.31
2021,10,24,11,40,979.31
2021,10,24,11,41,979.24
2021,10,24,11,42,979.11
2021,10,24,11,43,979.17
2021,10,24,11,44,979.21
2021,10,24,11,45,979.31
2021,10,24,11,46,979.34
2021,10,24,11,47,979.41
2021,10,24,11,48,979.28
2021,10,24,11,49,979.45
2021,10,24,11,50,979.38
2021,10,24,11,51,979.34
2021,10,24,11,52,979.48
2021,10,24,11,53,979.31
2021,10,24,11,54,979.41
2021,10,24,11,55,979.34
2021,10,24,11,56,979.28
2021,10,24,11,57,979.41
2021,10,24,11,58,979.21
2021,10,24,11,59,979.28
2021,10,24,12,00,979.28
2021,10,24,12,01,979.21
2021,10,24,12,02,979.14
2021,10,24,12,03,979.24
2021,10,24,12,04,979.17
2021,10,24,12,05,979.04
2021,10,24,12,06,979.11
2021,10,24,12,07,978.97
2021,10,24,12,08,979.04
2021,10,24,12,09,979.11
2021,10,24,12,10,979.14
2021,10,24,12,11,978.87
2021,10,24,12,12,979.03
2021,10,24,12,13,978.87
2021,10,24,12,14,978.87
2021,10,24,12,15,978.87
2021,10,24,12,16,978.77
2021,10,24,12,17,978.80
2021,10,24,12,18,978.73
2021,10,24,12,19,978.94
2021,10,24,12,20,978.94
2021,10,24,12,21,978.87
2021,10,24,12,22,979.04
2021,10,24,12,23,978.97
2021,10,24,12,24,978.94
2021,10,24,12,25,978.90
2021,10,24,12,26,978.94
2021,10,24,12,27,978.80
2021,10,24,12,28,978.77
2021,10,24,12,29,978.84
2021,10,24,12,30,978.73
2021,10,24,12,31,978.77
2021,10,24,12,32,978.84
2021,10,24,12,33,978.84
2021,10,24,12,34,978.84
2021,10,24,12,35,978.97
2021,10,24,12,36,978.94
2021,10,24,12,37,979.11
2021,10,24,12,38,979.17
2021,10,24,12,39,979.14
2021,10,24,12,40,979.28
2021,10,24,12,41,979.38
2021,10,24,12,42,979.38
2021,10,24,12,43,979.46
2021,10,24,12,44,979.55
2021,10,24,12,45,979.58
2021,10,24,12,46,979.55
2021,10,24,12,47,979.59
2021,10,24,12,48,979.68
2021,10,24,12,49,979.78
2021,10,24,12,50,979.78
2021,10,24,12,51,979.82
2021,10,24,12,52,979.78
2021,10,24,12,53,979.72
2021,10,24,12,54,979.78
2021,10,24,12,55,979.85
2021,10,24,12,56,979.99
2021,10,24,12,57,980.02
2021,10,24,12,58,980.12
2021,10,24,12,59,980.09
2021,10,24,13,00,979.92
2021,10,24,13,01,979.89
2021,10,24,13,02,979.85
2021,10,24,13,03,979.85
2021,10,24,13,04,979.82
2021,10,24,13,05,979.82
2021,10,24,13,06,979.89
2021,10,24,13,07,979.89
2021,10,24,13,08,979.98
2021,10,24,13,09,980.09
2021,10,24,13,10,980.09
2021,10,24,13,11,980.16
2021,10,24,13,12,980.19
2021,10,24,13,13,980.29
2021,10,24,13,14,980.39
2021,10,24,13,15,980.36
2021,10,24,13,16,980.33
2021,10,24,13,17,980.33
2021,10,24,13,18,980.39
2021,10,24,13,19,980.39
2021,10,24,13,20,980.43
2021,10,24,13,21,980.33
2021,10,24,13,22,980.16
2021,10,24,13,23,980.06
2021,10,24,13,24,980.09
2021,10,24,13,25,980.09
2021,10,24,13,26,980.02
2021,10,24,13,27,980.16
2021,10,24,13,28,980.12
2021,10,24,13,29,980.09
2021,10,24,13,30,980.19
2021,10,24,13,31,980.16
2021,10,24,13,32,980.12
2021,10,24,13,33,980.19
2021,10,24,13,34,980.19
2021,10,24,13,35,980.16
2021,10,24,13,36,980.16
2021,10,24,13,37,980.16
2021,10,24,13,38,980.16
2021,10,24,13,39,980.26
2021,10,24,13,40,980.22
2021,10,24,13,41,980.09
2021,10,24,13,42,979.86
2021,10,24,13,43,979.75
2021,10,24,13,44,979.61
2021,10,24,13,45,979.45
2021,10,24,13,46,979.24
2021,10,24,13,47,979.17
2021,10,24,13,48,979.28
2021,10,24,13,49,979.45
2021,10,24,13,50,979.61
2021,10,24,13,51,979.68
2021,10,24,13,52,979.78
2021,10,24,13,53,979.99
2021,10,24,13,54,980.22
2021,10,24,13,55,980.56
2021,10,24,13,56,980.97
2021,10,24,13,57,981.24
2021,10,24,13,58,981.54
2021,10,24,13,59,981.65
2021,10,24,14,00,981.65
2021,10,24,14,01,981.82
2021,10,24,14,02,981.82
2021,10,24,14,03,981.85
2021,10,24,14,04,981.78
2021,10,24,14,05,981.71
2021,10,24,14,06,981.65
2021,10,24,14,07,981.61
2021,10,24,14,08,981.34
2021,10,24,14,09,981.17
2021,10,24,14,10,981.00
2021,10,24,14,11,980.90
2021,10,24,14,12,980.90
2021,10,24,14,13,980.83
2021,10,24,14,14,980.60
2021,10,24,14,15,980.40
2021,10,24,14,16,980.16
2021,10,24,14,17,979.99
2021,10,24,14,18,979.85
2021,10,24,14,19,979.89
2021,10,24,14,20,980.02
2021,10,24,14,21,980.19
2021,10,24,14,22,980.26
2021,10,24,14,23,980.36
2021,10,24,14,24,980.33
2021,10,24,14,25,980.33
2021,10,24,14,26,980.26
2021,10,24,14,27,980.36
2021,10,24,14,28,980.43
2021,10,24,14,29,980.50
2021,10,24,14,30,980.53
2021,10,24,14,31,980.63
2021,10,24,14,32,980.60
2021,10,24,14,33,980.53
2021,10,24,14,34,980.46
2021,10,24,14,35,980.39
2021,10,24,14,36,980.33
2021,10,24,14,37,980.22
2021,10,24,14,38,980.19
2021,10,24,14,39,980.16
2021,10,24,14,40,980.12
2021,10,24,14,41,980.16
2021,10,24,14,42,980.12
2021,10,24,14,43,980.06
2021,10,24,14,44,980.02
2021,10,24,14,45,980.09
2021,10,24,14,46,980.02
2021,10,24,14,47,980.09
2021,10,24,14,48,980.16
2021,10,24,14,49,980.26
2021,10,24,14,50,980.26
2021,10,24,14,51,980.22
2021,10,24,14,52,980.26
2021,10,24,14,53,980.29
2021,10,24,14,54,980.39
2021,10,24,14,55,980.50
2021,10,24,14,56,980.56
2021,10,24,14,57,980.63
2021,10,24,14,58,980.66
2021,10,24,14,59,980.66
2021,10,24,15,00,980.73
2021,10,24,15,01,980.70
2021,10,24,15,02,980.73
2021,10,24,15,03,980.70
2021,10,24,15,04,980.73
2021,10,24,15,05,980.73
2021,10,24,15,06,980.80
2021,10,24,15,07,980.83
2021,10,24,15,08,980.83
2021,10,24,15,09,980.87
2021,10,24,15,10,980.83
2021,10,24,15,11,980.83
2021,10,24,15,12,980.83
2021,10,24,15,13,980.80
2021,10,24,15,14,980.80
2021,10,24,15,15,980.70
2021,10,24,15,16,980.63
2021,10,24,15,17,980.56
2021,10,24,15,18,980.53
2021,10,24,15,19,980.56
2021,10,24,15,20,980.63
2021,10,24,15,21,980.70
2021,10,24,15,22,980.80
2021,10,24,15,23,980.90
2021,10,24,15,24,981.04
2021,10,24,15,25,981.11
2021,10,24,15,26,981.24
2021,10,24,15,27,981.34
2021,10,24,15,28,981.44
2021,10,24,15,29,981.51
2021,10,24,15,30,981.58
2021,10,24,15,31,981.58
2021,10,24,15,32,981.61
2021,10,24,15,33,981.61
2021,10,24,15,34,981.65
2021,10,24,15,35,981.68
2021,10,24,15,36,981.75
2021,10,24,15,37,981.75
2021,10,24,15,38,981.68
2021,10,24,15,39,981.68
2021,10,24,15,40,981.68
2021,10,24,15,41,981.68
2021,10,24,15,42,981.71
2021,10,24,15,43,981.71
2021,10,24,15,44,981.75
2021,10,24,15,45,981.71
2021,10,24,15,46,981.75
2021,10,24,15,47,981.68
2021,10,24,15,48,981.78
2021,10,24,15,49,981.78
2021,10,24,15,50,981.75
2021,10,24,15,51,981.61
2021,10,24,15,52,981.55
2021,10,24,15,53,981.51
2021,10,24,15,54,981.51
2021,10,24,15,55,981.55
2021,10,24,15,56,981.51
2021,10,24,15,57,981.51
2021,10,24,15,58,981.44
2021,10,24,15,59,981.41
2021,10,24,16,00,981.41
2021,10,24,16,01,981.38
2021,10,24,16,02,981.38
2021,10,24,16,03,981.41
2021,10,24,16,04,981.48
2021,10,24,16,05,981.44
2021,10,24,16,06,981.48
2021,10,24,16,07,981.51
2021,10,24,16,08,981.58
2021,10,24,16,09,981.61
2021,10,24,16,10,981.65
2021,10,24,16,11,981.65
2021,10,24,16,12,981.71
2021,10,24,16,13,981.71
2021,10,24,16,14,981.68
2021,10,24,16,15,981.68
2021,10,24,16,16,981.65
2021,10,24,16,17,981.61
2021,10,24,16,18,981.58
2021,10,24,16,19,981.58
2021,10,24,16,20,981.55
2021,10,24,16,21,981.41
2021,10,24,16,22,981.38
2021,10,24,16,23,981.38
2021,10,24,16,24,981.31
2021,10,24,16,25,981.34
2021,10,24,16,26,981.34
2021,10,24,16,27,981.41
2021,10,24,16,28,981.34
2021,10,24,16,29,981.31
2021,10,24,16,30,981.38
2021,10,24,16,31,981.38
2021,10,24,16,32,981.38
2021,10,24,16,33,981.38
2021,10,24,16,34,981.41
2021,10,24,16,35,981.41
2021,10,24,16,36,981.41